O3B FM8

Last updated on Wed Sep 23 2026 00:03:53 GMT+0000 (Coordinated Universal Time)

1 40082U 14038D 26265.27886042 -.00000023 00000+0 00000+0 0 9992 2 40082 0.0448 352.9212 0002753 188.6376 178.4433 5.00116208222809
UTC large
Height (km)
Speed (km/s)
/
Latitude / Longitude
Inclination (degrees)
Orbital Period (minutes)
Azimuth
Elevation
Range (km)
Doppler Factor

Next 0 passes for location: London (51.5072 / 0.1276)

No passes found over London.
O3B FM8